Stündliche Wetter Abaclia

Heute, 8 März, Montag

Zeit Temperatur Niederschläge Wind Luftdruck Luftfeuchtigkeit
00:00 0°C° 0 mm 3 m/S 757 mmHg 68%
01:00 0°C° 0 mm 3 m/S 757 mmHg 70%
02:00 -1°C° 0 mm 2 m/S 756 mmHg 73%
03:00 -1°C° 0 mm 2 m/S 756 mmHg 70%
04:00 -1°C° 0 mm 2 m/S 756 mmHg 67%
05:00 +1°C° 0 mm 1 m/S 755 mmHg 63%
06:00 +2°C° 0 mm 1 m/S 755 mmHg 59%
07:00 +3°C° 0 mm 1 m/S 755 mmHg 54%
08:00 +3°C° 0 mm 1 m/S 755 mmHg 49%
09:00 +5°C° 0 mm 1 m/S 755 mmHg 45%
10:00 +6°C° 0 mm 1 m/S 755 mmHg 40%
11:00 +8°C° 0 mm 1 m/S 755 mmHg 36%
12:00 +8°C° 0 mm 1 m/S 755 mmHg 34%
13:00 +8°C° 0 mm 2 m/S 755 mmHg 32%
14:00 +8°C° 0 mm 2 m/S 754 mmHg 31%
15:00 +8°C° 0 mm 2 m/S 754 mmHg 31%
16:00 +8°C° 0 mm 2 m/S 754 mmHg 32%
17:00 +8°C° 0 mm 2 m/S 754 mmHg 32%
18:00 +8°C° 0 mm 1 m/S 755 mmHg 37%
19:00 +7°C° 0 mm 1 m/S 755 mmHg 41%
20:00 +6°C° 0 mm 1 m/S 755 mmHg 45%
21:00 +3°C° 0 mm 3 m/S 756 mmHg 54%
22:00 +1°C° 0 mm 4 m/S 756 mmHg 62%
23:00 +1°C° 0 mm 6 m/S 757 mmHg 71%

Morgen, 9 März, Dienstag

Zeit Temperatur Niederschläge Wind Luftdruck Luftfeuchtigkeit
00:00 0°C° 0 mm 5 m/S 758 mmHg 67%
01:00 0°C° 0 mm 4 m/S 758 mmHg 63%
02:00 0°C° 0 mm 4 m/S 758 mmHg 59%
03:00 -1°C° 0 mm 4 m/S 759 mmHg 62%
04:00 -2°C° 0 mm 4 m/S 759 mmHg 65%
05:00 -1°C° 0 mm 3 m/S 759 mmHg 68%
06:00 -2°C° 0 mm 4 m/S 759 mmHg 64%
07:00 -2°C° 0 mm 4 m/S 760 mmHg 60%
08:00 -2°C° 0 mm 4 m/S 760 mmHg 56%
09:00 -1°C° 0 mm 4 m/S 760 mmHg 50%
10:00 0°C° 0 mm 4 m/S 760 mmHg 44%
11:00 +1°C° 0 mm 4 m/S 760 mmHg 39%
12:00 +3°C° 0 mm 3 m/S 760 mmHg 37%
13:00 +3°C° 0 mm 3 m/S 760 mmHg 35%
14:00 +4°C° 0 mm 3 m/S 760 mmHg 34%
15:00 +4°C° 0 mm 3 m/S 760 mmHg 34%
16:00 +4°C° 0 mm 3 m/S 760 mmHg 35%
17:00 +5°C° 0 mm 2 m/S 760 mmHg 36%
18:00 +4°C° 0 mm 2 m/S 760 mmHg 40%
19:00 +3°C° 0 mm 2 m/S 761 mmHg 45%
20:00 +2°C° 0 mm 2 m/S 761 mmHg 49%
21:00 +2°C° 0 mm 2 m/S 762 mmHg 51%
22:00 +1°C° 0 mm 2 m/S 762 mmHg 53%
23:00 +1°C° 0 mm 2 m/S 762 mmHg 55%

übermorgen, 10 März, Mittwoch

Zeit Temperatur Niederschläge Wind Luftdruck Luftfeuchtigkeit
00:00 -1°C° 0 mm 2 m/S 762 mmHg 57%
01:00 -1°C° 0 mm 2 m/S 762 mmHg 59%
02:00 -1°C° 0 mm 2 m/S 762 mmHg 60%
03:00 -1°C° 0 mm 2 m/S 762 mmHg 61%
04:00 -1°C° 0 mm 2 m/S 762 mmHg 62%
05:00 -1°C° 0 mm 2 m/S 761 mmHg 63%
06:00 -1°C° 0 mm 3 m/S 761 mmHg 63%
07:00 -2°C° 0 mm 4 m/S 761 mmHg 62%
08:00 -1°C° 0 mm 4 m/S 761 mmHg 62%
09:00 0°C° 0 mm 5 m/S 761 mmHg 60%
10:00 0°C° 0 mm 5 m/S 761 mmHg 58%
11:00 +1°C° 0 mm 5 m/S 761 mmHg 56%
12:00 +1°C° 0 mm 5 m/S 761 mmHg 56%
13:00 +2°C° 0 mm 5 m/S 761 mmHg 56%
14:00 +2°C° 0 mm 5 m/S 761 mmHg 56%
15:00 +1°C° 0 mm 5 m/S 760 mmHg 56%
16:00 +1°C° 0 mm 5 m/S 760 mmHg 56%
17:00 0°C° 0 mm 5 m/S 760 mmHg 57%
18:00 0°C° 0 mm 5 m/S 760 mmHg 57%
19:00 -1°C° 0 mm 4 m/S 760 mmHg 58%
20:00 -2°C° 0 mm 4 m/S 761 mmHg 58%
21:00 -2°C° 0 mm 4 m/S 761 mmHg 58%
22:00 -1°C° 0 mm 3 m/S 761 mmHg 57%
23:00 -1°C° 0 mm 3 m/S 762 mmHg 56%

11 März, Donnerstag

Zeit Temperatur Niederschläge Wind Luftdruck Luftfeuchtigkeit
00:00 -2°C° 0 mm 3 m/S 762 mmHg 56%
01:00 -2°C° 0 mm 3 m/S 762 mmHg 56%
02:00 -2°C° 0 mm 3 m/S 763 mmHg 56%
03:00 -4°C° 0 mm 3 m/S 763 mmHg 55%
04:00 -4°C° 0 mm 3 m/S 763 mmHg 54%
05:00 -4°C° 0 mm 3 m/S 763 mmHg 53%
06:00 -4°C° 0 mm 3 m/S 763 mmHg 49%
07:00 -2°C° 0 mm 3 m/S 764 mmHg 46%
08:00 -2°C° 0 mm 3 m/S 764 mmHg 42%
09:00 -1°C° 0 mm 3 m/S 765 mmHg 38%
10:00 0°C° 0 mm 3 m/S 765 mmHg 33%
11:00 +1°C° 0 mm 3 m/S 765 mmHg 29%
12:00 +2°C° 0 mm 3 m/S 765 mmHg 28%
13:00 +3°C° 0 mm 2 m/S 764 mmHg 28%
14:00 +4°C° 0 mm 2 m/S 764 mmHg 27%
15:00 +4°C° 0 mm 2 m/S 764 mmHg 29%
16:00 +3°C° 0 mm 3 m/S 764 mmHg 31%
17:00 +3°C° 0 mm 3 m/S 763 mmHg 32%
18:00 +1°C° 0 mm 4 m/S 764 mmHg 40%
19:00 0°C° 0 mm 5 m/S 764 mmHg 48%
20:00 -3°C° 0 mm 6 m/S 764 mmHg 55%
21:00 -3°C° 0 mm 6 m/S 764 mmHg 56%
22:00 -3°C° 0 mm 6 m/S 764 mmHg 57%
23:00 -4°C° 0 mm 6 m/S 764 mmHg 58%

12 März, Freitag

Zeit Temperatur Niederschläge Wind Luftdruck Luftfeuchtigkeit
00:00 -3°C° 0 mm 6 m/S 763 mmHg 60%
01:00 -3°C° 0 mm 6 m/S 763 mmHg 62%
02:00 -3°C° 0 mm 6 m/S 762 mmHg 64%
03:00 -3°C° 0 mm 7 m/S 762 mmHg 66%
04:00 -3°C° 0 mm 7 m/S 762 mmHg 68%
05:00 -3°C° 0 mm 7 m/S 761 mmHg 71%
06:00 -2°C° 0 mm 7 m/S 761 mmHg 69%
07:00 -2°C° 0 mm 8 m/S 761 mmHg 67%
08:00 -1°C° 0 mm 9 m/S 760 mmHg 65%
09:00 0°C° 0 mm 9 m/S 760 mmHg 61%
10:00 +2°C° 0 mm 9 m/S 760 mmHg 56%
11:00 +3°C° 0 mm 9 m/S 760 mmHg 52%
12:00 +5°C° 0 mm 9 m/S 760 mmHg 51%
13:00 +6°C° 0 mm 9 m/S 759 mmHg 50%
14:00 +6°C° 0 mm 9 m/S 758 mmHg 49%
15:00 +6°C° 0 mm 8 m/S 758 mmHg 54%
16:00 +6°C° 0 mm 8 m/S 758 mmHg 58%
17:00 +5°C° 0 mm 7 m/S 758 mmHg 63%
18:00 +5°C° 0 mm 6 m/S 758 mmHg 64%
19:00 +6°C° 0 mm 5 m/S 758 mmHg 65%
20:00 +5°C° 0 mm 5 m/S 758 mmHg 66%
21:00 +5°C° 0 mm 5 m/S 758 mmHg 69%
22:00 +3°C° 0 mm 5 m/S 759 mmHg 72%
23:00 +3°C° 0 mm 5 m/S 759 mmHg 75%

13 März, Samstag

Zeit Temperatur Niederschläge Wind Luftdruck Luftfeuchtigkeit
00:00 +3°C° 0 mm 4 m/S 759 mmHg 79%
01:00 +3°C° 0 mm 4 m/S 759 mmHg 83%
02:00 +1°C° 0 mm 4 m/S 758 mmHg 87%
03:00 +2°C° 0 mm 3 m/S 758 mmHg 89%
04:00 +2°C° 0 mm 3 m/S 758 mmHg 91%
05:00 +1°C° 0 mm 3 m/S 758 mmHg 93%
06:00 +2°C° 0 mm 3 m/S 758 mmHg 91%
07:00 +2°C° 0 mm 3 m/S 758 mmHg 89%
08:00 +3°C° 0 mm 3 m/S 758 mmHg 87%
09:00 +4°C° 0 mm 4 m/S 758 mmHg 80%
10:00 +6°C° 0 mm 5 m/S 758 mmHg 73%
11:00 +8°C° 0 mm 5 m/S 758 mmHg 66%
12:00 +8°C° 0 mm 6 m/S 758 mmHg 63%
13:00 +9°C° 0 mm 6 m/S 757 mmHg 60%
14:00 +10°C° 0 mm 6 m/S 757 mmHg 57%
15:00 +9°C° 0 mm 6 m/S 756 mmHg 58%
16:00 +9°C° 0 mm 6 m/S 756 mmHg 60%
17:00 +8°C° 0 mm 6 m/S 756 mmHg 62%
18:00 +7°C° 0 mm 6 m/S 756 mmHg 66%
19:00 +5°C° 0 mm 6 m/S 756 mmHg 70%
20:00 +5°C° 0 mm 6 m/S 756 mmHg 73%
21:00 +4°C° 0 mm 6 m/S 755 mmHg 75%
22:00 +4°C° 0 mm 6 m/S 755 mmHg 77%
23:00 +5°C° 0 mm 5 m/S 755 mmHg 78%
Mehr zeigen

Wir brauchen deine Erlaubnis

Meteoprog und unser Service Anbieter werden persönliche Daten aufbewahren, so wie Cookies, Geräte Bezeichnung oder ähnliche Technologien von deinem Gerät und Prozess, so wie Persönliche Daten Inhalte und Werbungen, genauso wie social Media und den Verkehr zu analysieren.

  • Aufbewahrung und/oder Zugang zu deiner Geräte Informationen.

    Cookies, Geräte Bezeichnung oder andere Informationen, können aufbewahrt oder Zugang zu deinem Gerät erhalten, für den Grund, der oben angegeben wird.

  • Personalisierte Werbung und Inhalte, Messungen, Einblick in das Publikum und Produkt Entwicklung.

    Werbungen und Inhalte können personalisiert werden, basierend auf ein Profil. Mehr Daten können besser personalisierte Werbungen und Inhalte hinzufügen. Werbung und Inhalte können gezeigt und gemessen werden. Einblicke über das Publikum, welche die Werbung gesehen haben und den Inhalt, können abgeleitet werden. So wie Daten können genutzt werden, um es zu verbessern oder die Benutzer Erfahrung zu verbessern das System und die Software.

Wenn du “Ich stimme zu” klickst, erlaubst du uns, die Cookies zu benutzen die Geräte Bezeichnung, den Web oder ähnliche Technologien zu benutzen. Deine Settings, können in deinem Gerät bei deinem Browser geändert werden.

Für den bestimmten Zweck, berechtigten Interessen beruhen darauf, mehr als auf den Inhalt. Du kannst mehr darüber in unseren Privaten und Cookie Politik lesen.